Flag for Netherlands Weather past 2 weeks in Haarlem, Netherlands

Now
63 °F

Passing clouds.


Feels Like: 63 °F
Forecast: 60 / 67 °F
Wind: 17 mph from West

Location: Amsterdam Schiphol Airport

Current Time: Jul 6, 2015 at 12:05:34 AM

Latest Report: Jul 5, 2015 at 11:25 PM


Visibility: N/A

Pressure: 30.01 "Hg

Humidity: 88%

Dew point: 59 °F

Location of HaarlemLocation

Historic Weather in Haarlem — Graph

°F

Haarlem temperature yesterday

Maximum temperature yesterday: 81 °F (at 1:25 PM)
Minimum temperature yesterday: 63 °F (at 2:55 AM)
Average temperature yesterday: 68 °F

Past Weeks' High & Low Weather Summary

 TemperatureHumidityPressure
High91 °F (Jul 1, 3:55 PM)100% (Jun 21, 11:25 AM)30.24 "Hg (Jun 21, 11:25 AM)
Low50 °F (Jun 22, 10:55 PM)23% (Jun 26, 4:55 PM)29.68 "Hg (Jun 22, 7:25 PM)
Average66 °F70%30.05 "Hg
* Reported Jun 20 10:25 PM — Jul 5 10:25 PM, Haarlem, Weather by CustomWeather, © 2015

Note: Actual official high and low records may vary slightly from our data, if they occured in-between our weather recording intervals... More about our weather records

Advertising

Haarlem weather history for previous 24 hours

 ConditionsComfort  
Time TempWeatherWind HumidityBarometerVisibility
10:25 PM
Sun, Jul 5
64 °FPassing clouds.14 mph78%30.01 "HgN/A
9:55 PM64 °FPassing clouds.14 mph78%29.98 "HgN/A
9:25 PM64 °FPassing clouds.14 mph78%29.98 "HgN/A
8:55 PM64 °FPassing clouds.18 mph78%29.98 "HgN/A
8:25 PM66 °FScattered clouds.18 mph68%29.98 "HgN/A
7:55 PM68 °FPassing clouds.16 mph69%29.98 "HgN/A
7:25 PM68 °FPassing clouds.15 mph69%29.98 "HgN/A
6:55 PM70 °FPassing clouds.8 mph69%29.95 "HgN/A
6:25 PM68 °FPassing clouds.7 mph78%29.95 "HgN/A
5:55 PM64 °FPassing clouds.9 mph88%29.95 "HgN/A
5:25 PM64 °FPassing clouds.6 mph88%29.95 "HgN/A
4:55 PM63 °FThunderstorms. Scattered clouds.21 mph88%30.01 "HgN/A
4:25 PM64 °FScattered showers. Passing clouds.21 mph83%30.04 "HgN/A
3:55 PM64 °FPassing clouds.20 mph83%29.98 "HgN/A
3:25 PM64 °FScattered showers. Passing clouds.23 mph83%29.98 "HgN/A
2:55 PM72 °FPassing clouds.22 mph65%29.95 "HgN/A
2:25 PM81 °FPassing clouds.8 mph48%29.92 "HgN/A
1:55 PM81 °FSunny.3 mph51%29.95 "Hg10 mi
1:25 PM81 °FSunny.3 mph51%29.95 "Hg10 mi
12:55 PM79 °FPassing clouds.7 mph54%29.95 "HgN/A
12:25 PM75 °FPassing clouds.7 mph65%29.98 "HgN/A
11:55 AM75 °FPassing clouds.6 mph65%29.98 "HgN/A
11:25 AM75 °FPassing clouds.6 mph61%29.98 "HgN/A
10:55 AM75 °FPassing clouds.8 mph61%30.01 "HgN/A
10:25 AM75 °FSunny.2 mph61%30.01 "Hg10 mi
9:55 AM73 °FSunny.2 mph69%30.04 "Hg10 mi
9:25 AM72 °FSunny.2 mph69%30.04 "Hg10 mi
8:55 AM70 °FPassing clouds.3 mph73%30.07 "HgN/A
8:25 AM68 °FSunny.2 mph78%30.04 "Hg10 mi
7:55 AM68 °FSunny.2 mph78%30.07 "Hg10 mi
7:25 AM66 °FSunny.3 mph83%30.07 "Hg10 mi
6:55 AM66 °FSunny.3 mph83%30.07 "Hg10 mi
6:25 AM64 °FClear.3 mph88%30.07 "Hg10 mi
5:55 AM64 °FClear.2 mph88%30.09 "Hg10 mi
5:25 AM64 °FClear.5 mph88%30.09 "Hg10 mi
4:55 AM64 °FClear.5 mph88%30.09 "Hg10 mi
4:25 AM63 °FClear.2 mph88%30.09 "Hg10 mi
3:55 AM64 °FClear.5 mph83%30.09 "Hg10 mi
3:25 AM64 °FClear.2 mph78%30.09 "Hg10 mi
2:55 AM63 °FClear.3 mph88%30.12 "Hg10 mi
2:25 AM64 °FClear.6 mph83%30.12 "Hg10 mi
1:55 AM64 °FPassing clouds.3 mph83%30.12 "HgN/A
1:25 AM66 °FPassing clouds.6 mph78%30.12 "HgN/A
12:55 AM64 °FClear.5 mph83%30.12 "Hg10 mi
12:25 AM66 °FPassing clouds.6 mph78%30.12 "HgN/A
Weather by CustomWeather, © 2015

See weather overviewHow to use our weather pages